Location: Baia Mare
(47.6567°N, 23.5850°E)
Time: 14:33:31
(UTC+03:00)

ISS - Pass Details

Date: 28 July 2019
Orbit: 409 x 418 km, 51.6° (Epoch: 21 July)

Event Time Altitude Azimuth Distance (km) Brightness Sun altitude
Rises 22:17:57 0° 290° (WNW) 2,357 1.4 -10.5°
Reaches altitude 10° 22:20:05 10° 296° (WNW) 1,491 0.3 -10.8°
Maximum altitude 22:23:21 49° 13° (NNE) 541 -3.0 -11.1°
Enters shadow 22:26:32 10° 90° (E) 1,456 -1.4 -11.5°
